| time (UTC) | temp F | wind direction | speed knots | gust knots | rain 1hr in | rain 24hr in | rain mn in | humidity % | barometer mb |
| 20260504215729 | 69 | 317 | 3.5 | 7.0 | 0.00 | 0.00 | 0.00 | 28 | 1007.8 |
| 20260504212829 | 71 | 316 | 2.6 | 6.1 | 0.00 | 0.00 | 0.00 | 25 | 1007.4 |
| 20260504211829 | 72 | 321 | 3.5 | 12.2 | 0.00 | 0.00 | 0.00 | 27 | 1007.1 |
| 20260504210828 | 72 | 332 | 5.2 | 12.2 | 0.00 | 0.00 | 0.00 | 27 | 1007.0 |
| 20260504205828 | 73 | 298 | 3.5 | 7.8 | 0.00 | 0.00 | 0.00 | 27 | 1007.1 |
| 20260504204830 | 72 | 353 | 2.6 | 5.2 | 0.00 | 0.00 | 0.00 | 27 | 1007.0 |
| 20260504203928 | 72 | 295 | 5.2 | 13.0 | 0.00 | 0.00 | 0.00 | 27 | 1007.0 |
| 20260504202929 | 73 | 300 | 3.5 | 6.1 | 0.00 | 0.00 | 0.00 | 27 | 1007.1 |
| 20260504201928 | 73 | 292 | 2.6 | 6.1 | 0.00 | 0.00 | 0.00 | 26 | 1007.2 |
| 20260504200928 | 73 | 339 | 3.5 | 8.7 | 0.00 | 0.00 | 0.00 | 27 | 1006.9 |
| 20260504195932 | 73 | 324 | 3.5 | 4.3 | 0.00 | 0.00 | 0.00 | 26 | 1007.0 |
| 20260504194028 | 74 | 341 | 4.3 | 7.0 | 0.00 | 0.00 | 0.00 | 26 | 1006.9 |
| 20260504193127 | 75 | 295 | 1.7 | 4.3 | 0.00 | 0.00 | 0.00 | 27 | 1006.5 |
| 20260504192227 | 74 | 325 | 3.5 | 9.6 | 0.00 | 0.00 | 0.00 | 26 | 1006.4 |
| 20260504190228 | 74 | 344 | 3.5 | 7.8 | 0.00 | 0.00 | 0.00 | 29 | 1006.4 |
| 20260504185327 | 74 | 104 | 1.7 | 3.5 | 0.00 | 0.00 | 0.00 | 29 | 1006.4 |
| 20260504181329 | 75 | 284 | 2.6 | 7.0 | 0.00 | 0.00 | 0.00 | 34 | 1005.9 |
| 20260504180329 | 74 | 293 | 3.5 | 6.1 | 0.00 | 0.00 | 0.00 | 34 | 1005.8 |
| 20260504175329 | 75 | 315 | 2.6 | 5.2 | 0.00 | 0.00 | 0.00 | 33 | 1005.5 |
| 20260504174328 | 75 | 267 | 5.2 | 8.7 | 0.00 | 0.00 | 0.00 | 33 | 1005.5 |
| 20260504173331 | 75 | 288 | 3.5 | 9.6 | 0.00 | 0.00 | 0.00 | 34 | 1005.5 |
| 20260504172328 | 76 | 294 | 2.6 | 6.1 | 0.00 | 0.00 | 0.00 | 34 | 1005.5 |
| 20260504171329 | 75 | 302 | 2.6 | 9.6 | 0.00 | 0.00 | 0.00 | 32 | 1005.4 |
| 20260504170329 | 76 | 307 | 3.5 | 7.8 | 0.00 | 0.00 | 0.00 | 33 | 1005.3 |
| 20260504160428 | 74 | 212 | 5.2 | 13.0 | 0.00 | 0.00 | 0.00 | 32 | 1005.1 |
| 20260504150527 | 71 | 239 | 3.5 | 7.0 | 0.00 | 0.00 | 0.00 | 36 | 1005.3 |
| 20260504150428 | 71 | 242 | 3.5 | 7.0 | 0.00 | 0.00 | 0.00 | 35 | 1005.4 |
| 20260504140427 | 64 | 240 | 3.5 | 6.1 | 0.00 | 0.00 | 0.00 | 45 | 1006.2 |
| 20260504130529 | 56 | 233 | 1.7 | 3.5 | 0.00 | 0.00 | 0.00 | 56 | 1006.6 |
| 20260504081928 | 51 | 157 | 0.0 | 0.9 | 0.00 | 0.00 | 0.00 | 57 | 1008.4 |
| 20260504080928 | 50 | 215 | 0.9 | 3.5 | 0.00 | 0.00 | 0.00 | 57 | 1008.7 |
| 20260504045033 | 53 | 157 | 0.0 | 0.0 | 0.00 | 0.00 | 0.00 | 50 | 1011.2 |
| 20260504044032 | 53 | 157 | 0.0 | 0.0 | 0.00 | 0.00 | 0.00 | 49 | 1011.5 |
| 20260504043033 | 54 | 157 | 0.0 | 0.0 | 0.00 | 0.00 | 0.00 | 48 | 1011.5 |
| 20260504042131 | 55 | 157 | 0.0 | 0.0 | 0.00 | 0.00 | 0.00 | 46 | 1011.7 |
| 20260504041132 | 56 | 157 | 0.0 | 0.0 | 0.00 | 0.00 | 0.00 | 46 | 1011.6 |
| 20260504040231 | 56 | 247 | 0.0 | 0.0 | 0.00 | 0.00 | 0.00 | 45 | 1011.7 |
| 20260504034334 | 56 | 202 | 0.0 | 0.0 | 0.00 | 0.00 | 0.00 | 45 | 1012.0 |
| 20260504033431 | 56 | 157 | 0.0 | 0.0 | 0.00 | 0.00 | 0.00 | 45 | 1012.0 |
| 20260504033332 | 56 | 157 | 0.0 | 0.0 | 0.00 | 0.00 | 0.00 | 45 | 1012.1 |
| 20260504032330 | 57 | 247 | 0.0 | 0.0 | 0.00 | 0.00 | 0.00 | 43 | 1012.1 |
| 20260504031332 | 57 | 247 | 0.0 | 0.0 | 0.00 | 0.00 | 0.00 | 42 | 1012.3 |
| 20260504030431 | 58 | 247 | 0.0 | 0.0 | 0.00 | 0.00 | 0.00 | 41 | 1012.3 |
| 20260504025433 | 58 | 247 | 0.0 | 0.0 | 0.00 | 0.00 | 0.00 | 40 | 1012.4 |
| 20260504024532 | 58 | 247 | 0.0 | 0.0 | 0.00 | 0.00 | 0.00 | 40 | 1012.4 |
| 20260504023534 | 59 | 247 | 0.0 | 0.0 | 0.00 | 0.00 | 0.00 | 39 | 1012.4 |
| 20260504022533 | 60 | 247 | 0.0 | 0.0 | 0.00 | 0.00 | 0.00 | 37 | 1012.3 |
| 20260504021631 | 61 | 247 | 0.0 | 0.0 | 0.00 | 0.00 | 0.00 | 36 | 1012.3 |
| 20260504020633 | 62 | 247 | 0.0 | 0.0 | 0.00 | 0.00 | 0.00 | 35 | 1012.3 |
| 20260504015632 | 63 | 247 | 0.0 | 0.0 | 0.00 | 0.00 | 0.00 | 34 | 1012.2 |
| 20260504013631 | 65 | 247 | 0.0 | 0.0 | 0.00 | 0.00 | 0.00 | 32 | 1012.0 |
| 20260504012631 | 66 | 247 | 0.0 | 0.0 | 0.00 | 0.00 | 0.00 | 31 | 1012.0 |
| 20260504011632 | 67 | 247 | 0.0 | 0.9 | 0.00 | 0.00 | 0.00 | 29 | 1011.9 |
| 20260504010633 | 68 | 268 | 0.9 | 1.7 | 0.00 | 0.00 | 0.00 | 29 | 1011.9 |
| 20260504005730 | 69 | 270 | 0.0 | 0.0 | 0.00 | 0.00 | 0.00 | 28 | 1011.9 |
| 20260504004733 | 70 | 270 | 0.0 | 0.0 | 0.00 | 0.00 | 0.00 | 27 | 1011.8 |
| 20260504002832 | 72 | 292 | 0.9 | 1.7 | 0.00 | 0.00 | 0.00 | 25 | 1011.9 |
| 20260504001833 | 72 | 275 | 0.9 | 3.5 | 0.00 | 0.00 | 0.00 | 25 | 1011.8 |
| 20260503235932 | 72 | 281 | 1.7 | 3.5 | 0.00 | 0.00 | 0.00 | 25 | 1011.9 |
| 20260503235832 | 72 | 257 | 1.7 | 4.3 | 0.00 | 0.00 | 0.00 | 25 | 1011.9 |
| 20260503233833 | 72 | 346 | 0.9 | 3.5 | 0.00 | 0.00 | 0.00 | 25 | 1012.1 |
| 20260503232830 | 72 | 288 | 0.9 | 2.6 | 0.00 | 0.00 | 0.00 | 25 | 1012.2 |
| 20260503231830 | 72 | 286 | 1.7 | 3.5 | 0.00 | 0.00 | 0.00 | 25 | 1012.4 |
| 20260503230833 | 72 | 289 | 3.5 | 8.7 | 0.00 | 0.00 | 0.00 | 25 | 1012.3 |
| 20260503224930 | 72 | 310 | 0.9 | 1.7 | 0.00 | 0.00 | 0.00 | 25 | 1012.4 |
| 20260503223931 | 72 | 320 | 0.9 | 1.7 | 0.00 | 0.00 | 0.00 | 24 | 1012.4 |
| 20260503222932 | 72 | 267 | 5.2 | 7.8 | 0.00 | 0.00 | 0.00 | 24 | 1012.5 |
| 20260503221932 | 72 | 287 | 4.3 | 9.6 | 0.00 | 0.00 | 0.00 | 25 | 1012.4 |
| 20260503220931 | 72 | 301 | 2.6 | 4.3 | 0.00 | 0.00 | 0.00 | 25 | 1012.6 |